Location: Avon Lake
(41.5219°N, 93.5010°W)
Time: 11:45:26
(UTC+00:00)

N. Korean satellite - Visible Passes

Search period start: 28 November 2022 00:00
Search period end: 08 December 2022 00:00
Orbit: 422 x 454 km, 97.3° (Epoch: 28 November)

Date Brightness Start Highest point End Pass type
(mag) Time Alt. Az. Time Alt. Az. Time Alt. Az.
28 Nov 9.8 10:33:58 10° ENE 10:35:33 13° E 10:37:08 10° ESE visible
28 Nov 7.0 12:05:04 10° N 12:08:12 33° WNW 12:11:18 10° SW visible
29 Nov 6.7 11:26:12 10° NNE 11:29:37 66° E 11:32:58 10° S visible
29 Nov 9.4 23:28:39 10° SSW 23:31:17 21° W 23:33:56 10° NW visible
30 Nov 9.2 10:48:13 10° NE 10:50:46 19° E 10:53:17 10° SE visible
30 Nov 7.6 12:20:30 10° NNW 12:23:13 22° WNW 12:25:53 10° WSW visible
01 Dec 6.2 11:41:13 10° N 11:44:38 74° WNW 11:47:59 10° SSW visible
01 Dec 9.7 23:44:31 10° SW 23:46:21 14° W 23:48:12 10° WNW visible
02 Dec 8.4 11:02:44 10° NNE 11:05:47 30° E 11:08:48 10° SSE visible
02 Dec 8.1 12:36:03 10° NNW 12:38:02 15° WNW 12:40:00 10° WSW visible
03 Dec 6.6 11:56:12 10° N 11:59:27 44° WNW 12:02:41 10° SSW visible
04 Dec 7.4 11:17:20 10° NNE 11:20:37 48° E 11:23:53 10° S visible
04 Dec 8.8 23:19:13 10° SSW 23:22:10 28° W 23:25:09 10° NW visible
05 Dec 9.6 10:39:34 10° ENE 10:41:33 15° E 10:43:31 10° SE visible
05 Dec 7.2 12:11:09 10° N 12:14:06 28° WNW 12:17:02 10° SW visible
06 Dec 6.4 11:31:52 10° NNE 11:35:17 80° ESE 11:38:38 10° S visible
06 Dec 9.5 23:34:24 10° SW 23:36:50 18° W 23:39:18 10° NW visible
07 Dec 8.9 10:53:30 10° NE 10:56:12 22° E 10:58:52 10° SSE visible
07 Dec 7.8 12:26:05 10° NNW 12:28:34 19° WNW 12:31:00 10° WSW visible
